Regional Weather Roundup
Issued by NWS Sterling, VA

Home | Current Version | Previous Version | Graphics & Text | Print | Product List | Glossary On
Versions: 1 2 3 4 5 6 7 8 9 10 11 12 13 14 15 16 17 18 19 20 21 22 23 24 25 26 27
000
ASUS41 KLWX 230111
RWRLWX

REGIONAL WEATHER ROUNDUP
NATIONAL WEATHER SERVICE BALTIMORE MD/WASHINGTON DC
900 PM EDT SAT APR 22 2017

Note: "FAIR" indicates few or no clouds below 12,000 feet
with no significant weather and/or obstructions to visibility.
 TC=TEMPERATURE CELSIUS

 * =Non NWS site. Station does not report precipitation (e.g. rain,
    snow, etc.), thunder, or fog.

DCZ001-MDZ009-015-VAZ040>042-051-053>054-230200-
WASHINGTON METRO

CITY           SKY/WX    TMP DP  RH WIND       PRES   REMARKS
WASHINGTON NAT CLOUDY    54  50  86 N13       30.00R
DULLES         CLOUDY    51  47  86 N7        30.02R
ANDREWS AFB    CLOUDY    51  50  94 N9        29.98R
FT BELVOIR     CLOUDY    52  50  93 NW8       30.01R
QUANTICO       CLOUDY    52  51  97 NW9       30.01R
COLLEGE PARK*  CLOUDY    51  49  91 NW6       30.00R
LEESBURG*      CLOUDY    50  50 100 N3        30.03R
MANASSAS*        N/A     51  48  89 N8        30.03R

$$

MDZ006>007-011-014-230200-
BALTIMORE METRO

CITY           SKY/WX    TMP DP  RH WIND       PRES   REMARKS
BWI AIRPORT    MOCLDY    51  51 100 NW3       29.99R
MD SCIENCE CTR   N/A     54  47  77 MISG      30.00R
MARTIN STATE   CLOUDY    54  54 100 NW5       30.01R
ANNAPOLIS      CLOUDY    55  51  86 NW7       29.99R
FORT MEADE*    CLOUDY    50  50 100 NW3       30.02R

$$

MDZ012-015-019>023-230200-
MARYLAND EASTERN SHORE

CITY           SKY/WX    TMP DP  RH WIND       PRES   REMARKS
OCEAN CITY     LGT RAIN  52  49  89 NE7       29.97R
SALISBURY      LGT RAIN  52  52 100 NE8       29.96S
BAY BRIDGE AP* CLOUDY    52  50  93 CALM      29.99R
CAMBRIDGE*     CLOUDY    54  52  94 NE5       29.98R
EASTON*        DRIZZLE   54  50  87 NE5       30.01S

$$

MDZ017>025-230200-
SOUTHERN MARYLAND

CITY           SKY/WX    TMP DP  RH WIND       PRES   REMARKS
PATUXENT RIVER CLOUDY    54  54 100 NE13      29.98R
ST INIGOES     LGT RAIN  54  51  90 NE5       29.98R
LEONARDTOWN*   CLOUDY    52  50  93 CALM      30.00R

$$

MDZ003>005-230200-
NORTH CENTRAL MARYLAND

CITY           SKY/WX    TMP DP  RH WIND       PRES   REMARKS
FREDERICK*     NOT AVBL
HAGERSTOWN APT MOCLDY    51  48  89 S3        30.01R
WESTMINSTER*   CLOUDY    50  50 100 CALM      30.00S

$$

MDZ501>502-230200-
WESTERN MARYLAND

CITY           SKY/WX    TMP DP  RH WIND       PRES   REMARKS
OAKLAND*       CLOUDY    39  34  81 CALM      30.02R
CUMBERLAND*    PTCLDY    46  45  93 CALM      30.07R

$$

VAZ025>031-230200-
SHENANDOAH VALLEY

CITY           SKY/WX    TMP DP  RH WIND       PRES   REMARKS
WINCHESTER*    CLOUDY    45  45 100 CALM      30.02R FOG
FRONT ROYAL*   CLOUDY    46  46 100 S3        30.02R
LURAY*         CLOUDY    48  48 100 CALM      30.02S
NEW MARKET*    PTCLDY    47  46  94 N3        30.02R
STAUNTON*      CLOUDY    47  46  95 NE7       30.02S
WAYNESBORO*    CLOUDY    48  48  98 NW6       30.00R

$$

WVZ021-048>050-054>055-230200-
EASTERN WEST VIRGINIA PANHANDLE

CITY           SKY/WX    TMP DP  RH WIND       PRES   REMARKS
MARTINSBURG    CLOUDY    48  46  93 CALM      30.01R
PETERSBURG*    MOCLDY    49  48  97 CALM      30.04R

$$

VAZ036>039-050-230200-
CENTRAL FOOTHILLS

CITY           SKY/WX    TMP DP  RH WIND       PRES   REMARKS
CHARLOTTESVILL MOCLDY    51  48  89 N3        30.00S
CULPEPER*      CLOUDY    51  49  95 CALM      30.03R
ORANGE*        CLOUDY    50  46  87 CALM      30.02R
GORDONSVILLE*  CLOUDY    50  48  93 NE6       30.00S
WARRENTON*     CLOUDY    51  47  84 N3        30.02R

$$

VAZ055>057-230200-
NORTH AND CENTRAL PIEDMONT

CITY           SKY/WX    TMP DP  RH WIND       PRES   REMARKS
FREDERICKSBRG* CLOUDY    51  51 100 NW3       30.00R
STAFFORD*      CLOUDY    49  49 100 NW7       30.05R

$$

NCZ024-NYZ072-PAZ021-071-VAZ022-071-230200-
OTHER REGIONAL OBSERVATIONS

CITY           SKY/WX    TMP DP  RH WIND       PRES   REMARKS
NEW YORK CITY  CLOUDY    53  46  77 VRB6      29.99S
PHILADELPHIA   CLOUDY    54  49  83 NW7       29.99R
PITTSBURGH     MOCLDY    51  35  54 N12       30.05R
ROANOKE        LGT RAIN  53  51  93 NE13      29.99R FOG
RICHMOND       LGT RAIN  53  52  96 N12       29.98R
RALEIGH        CLOUDY    62  59  90 N12       29.91R

$$

ANZ530>537-230200-
MARINE OBSERVATIONS

STATION/POSITION TIME  TEMP    WIND        PRES
                       AIR SEA DIR/SP/G
                 (UTC) (F)     (DEG/KT/KT) (MB)
THOMAS PT LIGHT  0000   53 59  360/ 10/ 12   N/A
BALT KEY BRIDGE  0036   54     340/  8/ 10 1015.5R
COVE POINT       0042   54      50/ 14/ 17 1015.4R
LEWISETTA        0030   56 66   40/  9/ 16 1014.7R
SOLOMONS ISLAND  0042   55 62  360/  7/ 10   N/A
PINEY POINT      0042           20/  5/  6   N/A

$$





USA.gov is the U.S. government's official web portal to all federal, state and local government web resources and services.